Springfield, IL

4:19 AM CST on December 16, 2019 (GMT -0600)
Capital

Weather History for KSPI - October, 2019

Change the Weather History Date:

Wednesday, October 23, 2019

  Actual Average Record
Temperature  
Mean Temperature 55 °F 53 °F  
Max Temperature 71 °F 64 °F 85 °F (1963)
Min Temperature 39 °F 42 °F 24 °F (1981)
Degree Days  
Heating Degree Days 10 12  
Month to date heating degree days 213 217  
Since 1 July heating degree days 214 298  
Cooling Degree Days 0 0  
Month to date cooling degree days 32 19  
Year to date cooling degree days 1309 1118  
Growing Degree Days 4 (Base 50)    
Moisture  
Dew Point 35 °F    
Average Humidity 49    
Maximum Humidity 70    
Minimum Humidity 28    
Precipitation  
Precipitation 0.00 in 0.10 in 1.54 in (1951)
Month to date precipitation 1.04 2.32  
Year to date precipitation 41.59 30.87  
Snow  
Snow 0.00 in 0.00 in 1.70 in (1929)
Month to date snowfall 0.0 0.0  
Since 1 July snowfall 0.0 0.0  
Since 1 September snowfall 0.0 0.0  
Snow Depth 0.00 in    
Sea Level Pressure  
Sea Level Pressure 29.96 in    
Wind  
Wind Speed 11 mph (SSW)    
Max Wind Speed 21 mph    
Max Gust Speed 32 mph    
Visibility 10 miles    
Events      
T = Trace of Precipitation, MM = Missing Value Source: NWS Daily Summary

Daily Weather History Graph

Daily Weather History Graph

Search for Another Location

Airport or City:

Astronomy

Oct. 23, 2019 Rise Set
Actual Time 7:17 AM CDT 6:08 PM CDT
Civil Twilight 6:49 AM CDT 6:35 PM CDT
Nautical Twilight 6:18 AM CDT 7:07 PM CDT
Astronomical Twilight 5:46 AM CDT 7:38 PM CDT
Moon 1:36 AM CDT (10/23) 3:58 PM CDT (10/23)
Length of Visible Light 11h 45m
Length of Day
10h 50m
Waning Crescent, 26% of the Moon is Illuminated
Oct 23
Waning Crescent
Oct 27
New
Nov 4
First Quarter
Nov 12
Full
Nov 19
Last Quarter

Hourly Weather History & Observations

Time (CDT) Temp. Windchill Dew Point Humidity Pressure Visibility Wind Dir Wind Speed Gust Speed Precip Events Conditions
12:52 AM 41.0 °F 38.0 °F 30.0 °F 65% 29.95 in 10.0 mi SW 4.6 mph - N/A   Clear
1:52 AM 41.0 °F 37.1 °F 30.0 °F 65% 29.96 in 10.0 mi SW 5.8 mph - N/A   Clear
2:52 AM 41.0 °F 37.1 °F 30.0 °F 65% 29.95 in 10.0 mi SW 5.8 mph - N/A   Clear
3:52 AM 39.9 °F 35.8 °F 30.0 °F 68% 29.95 in 10.0 mi SSW 5.8 mph - N/A   Clear
4:52 AM 41.0 °F 35.8 °F 30.9 °F 67% 29.97 in 10.0 mi SSW 8.1 mph - N/A   Clear
5:52 AM 41.0 °F 36.4 °F 32.0 °F 70% 29.98 in 10.0 mi SSW 6.9 mph - N/A   Clear
6:52 AM 43.0 °F 37.7 °F 33.1 °F 68% 29.99 in 10.0 mi SSW 9.2 mph - N/A   Overcast
7:52 AM 45.0 °F 41.8 °F 34.0 °F 65% 30.00 in 10.0 mi SSW 5.8 mph - N/A   Overcast
8:52 AM 48.9 °F - 35.1 °F 59% 30.00 in 10.0 mi SSW 10.4 mph - N/A   Partly Cloudy
9:52 AM 54.0 °F - 35.1 °F 49% 30.01 in 10.0 mi SSW 13.8 mph 21.9 mph N/A   Mostly Cloudy
10:52 AM 59.0 °F - 35.1 °F 41% 30.00 in 10.0 mi SW 12.7 mph 21.9 mph N/A   Clear
11:52 AM 61.0 °F - 36.0 °F 39% 29.99 in 10.0 mi SSW 8.1 mph 18.4 mph N/A   Scattered Clouds
12:52 PM 68.0 °F - 35.1 °F 30% 29.95 in 10.0 mi SSW 12.7 mph 24.2 mph N/A   Clear
1:52 PM 68.0 °F - 35.1 °F 30% 29.93 in 10.0 mi SSW 10.4 mph 21.9 mph N/A   Partly Cloudy
2:52 PM 70.0 °F - 35.1 °F 28% 29.91 in 10.0 mi SSW 13.8 mph 27.6 mph N/A   Mostly Cloudy
3:52 PM 69.1 °F - 36.0 °F 30% 29.91 in 10.0 mi SSW 12.7 mph 23.0 mph N/A   Partly Cloudy
4:52 PM 70.0 °F - 36.0 °F 29% 29.89 in 10.0 mi South 15.0 mph 24.2 mph N/A   Clear
5:52 PM 66.0 °F - 37.0 °F 34% 29.89 in 10.0 mi South 10.4 mph - N/A   Partly Cloudy
6:52 PM 64.0 °F - 39.0 °F 40% 29.92 in 10.0 mi South 12.7 mph 23.0 mph N/A   Clear
7:52 PM 62.1 °F - 39.0 °F 43% 29.95 in 10.0 mi South 15.0 mph 21.9 mph N/A   Overcast
8:52 PM 62.1 °F - 39.9 °F 44% 29.95 in 10.0 mi South 16.1 mph 31.1 mph N/A   Overcast
9:52 PM 62.1 °F - 39.9 °F 44% 29.98 in 10.0 mi SSW 13.8 mph 25.3 mph N/A   Overcast
10:52 PM 61.0 °F - 41.0 °F 48% 30.01 in 10.0 mi SW 9.2 mph 26.5 mph N/A   Overcast
11:52 PM 60.1 °F - 42.1 °F 51% 30.01 in 10.0 mi SSW 9.2 mph - N/A   Mostly Cloudy